www.pogodaiklimat.ru

ПОГОДА в Маунт Плезант, MI

  • Прогноз погоды в Маунт Плезант
  • Монитор погоды в Маунт Плезант
  • Климат в Маунт Плезант

АРХИВ ПОГОДЫ в Маунт Плезант

Время (UTC), дата Ветер
(напр.,м/с)
 
Видим.   Явления Облачность Т
(С)
Тd
(С)
f
(%)
Тe
(С)
Тes
(С)
Комфортность

P
(гПа)

Po
(гПа)
Тmin
(С)
Tmax
(С)
R
(мм)
SD
(см)
19:56 24.03 З  16 км    ясно  +10.7  -1.9  41  +8  +13      990.0         
20:15 24.03 З  16 км    ясно  +10.8  -1.6  42  +9  +12      989.7         
20:16 24.03 З  16 км    ясно  +10.8  -1.7  42  +8  +11      989.7         
20:35 24.03 З  16 км    ясно  +11.0  -2.3  39  +9  +11      990.0         
20:55 24.03 З  16 км    ясно  +10.9  -2.0  40  +9  +13      990.0         
20:56 24.03 З  16 км    ясно  +11.0  -1.9  41  +9  +13      990.0         
21:15 24.03 З  16 км    ясно  +10.9  -3.1  37  +9  +10      990.0         
21:35 24.03 З  16 км    ясно  +10.6  -2.9  39  +9  +11      990.0         
21:36 24.03 З  16 км    ясно  +10.6  -2.9  39  +9  +12      990.0         
21:55 24.03 З  16 км    ясно  +10.3  -3.1  39  +9  +11      990.4         
21:56 24.03 З  16 км    ясно  +10.3  -3.1  39  +9  +11      990.4         
22:15 24.03 СЗ  16 км    ясно  +9.8  -3.1  40  +9  +10      990.4         
22:35 24.03 СЗ  16 км    ясно  +9.1  -3.1  42  +8  +9      990.4         
22:36 24.03   16 км    ясно  +9.1  -3.1  42  +9  +10      990.4         
22:55 24.03 С  16 км    ясно  +8.5  -2.6  46  +6  +6      991.0  +8.5  +11.1     
22:56 24.03 С  16 км    ясно  +8.5  -2.5  46  +6  +6      991.0  +8.5  +11.1     
23:15 24.03 СВ  16 км    ясно  +6.0  -2.0  56  +2  +2      991.4         
23:35 24.03 В  6
{8} 
16 км    ясно  +4.4  -1.9  64  -1  -1      992.0         
23:36 24.03 В  6
{8} 
16 км    ясно  +4.4  -1.9  64  -1  -1      992.0         
23:55 24.03 СВ  16 км    ясно  +3.3  -1.7  70  -1  -1      992.7         
00:15 25.03 СВ  16 км    ясно  +3.0  -1.8  71  -2  -2      993.0         
00:16 25.03 СВ  16 км    ясно  +3.0  -1.8  71  -1  -1      993.0         
00:35 25.03 СВ  16 км    ясно  +2.6  -2.0  72  -2  -2      993.3         
00:36 25.03 СВ  16 км    ясно  +2.7  -2.0  71  -2  -2      993.3         
00:55 25.03 СВ  16 км    ясно  +2.3  -2.2  72  -2  -2      993.7         
01:15 25.03 СВ  16 км    ясно  +2.0  -2.4  73  -2  -2      994.0         
01:35 25.03 СВ  16 км    ясно  +1.5  -2.5  75  -3  -3      994.3         
01:36 25.03 СВ  16 км    ясно  +1.5  -2.5  75  -3  -3      994.3         
01:55 25.03 СВ  16 км    ясно  +1.3  -2.6  75  -3  -3      994.3         
02:15 25.03 СВ  16 км    ясно  +1.0  -2.7  76  -3  -3      994.6         
02:35 25.03 СВ  16 км    ясно  +0.7  -2.9  77  -3  -3      994.6         
02:36 25.03 СВ  16 км    ясно  +0.6  -2.9  77  -3  -3      994.6         
02:55 25.03 СВ  16 км    5/5 1800 м  +0.3  -3.1  78  -4  -4      995.0         
02:56 25.03 СВ  16 км    5/5 1800 м  +0.2  -3.2  78  -4  -4      995.0         
03:15 25.03 СВ  16 км    8/8 1800 м  +0.3  -3.0  78  -3  -3      995.0         
03:35 25.03 СВ  16 км    10/10 1800 м  +0.1  -3.0  80  -4  -4      995.0         
03:36 25.03 СВ  16 км    10/10 1800 м  +0.1  -3.0  80  -4  -4      995.0         
03:55 25.03 СВ  16 км    10/10 1800 м  +0.2  -3.2  78  -3  -3      995.3         
03:56 25.03 СВ  16 км    10/10 1800 м  +0.2  -3.2  78  -3  -3      995.3         
04:15 25.03 СВ  16 км    5/5 1410 м  0.0  -3.5  77  -3  -3      995.3         
04:35 25.03 СВ  16 км    8/8 1410 м  0.0  -3.5  77  -3  -3      995.3         
04:55 25.03 СВ  16 км    8/5 1410 м
[средняя] 
0.0  -3.5  77  -3  -3      995.3  0.0  +8.2     
04:56 25.03 СВ  16 км    8/5 1410 м
[средняя] 
0.0  -3.5  77  -5  -5      995.3  0.0  +8.2     
05:15 25.03   16 км    8/0 2700 м
[средняя] 
-0.1  -4.0  75  -1  -1      995.3         
05:35 25.03 С  16 км    5/0 2700 м
[средняя] 
-0.3  -4.5  73  -3  -3      995.3         
05:55 25.03 СВ  16 км    ясно  -0.6  -5.0  72  -5  -5      995.3         
06:15 25.03 СВ  16 км    ясно  -0.6  -5.3  70  -6  -6      995.6         
06:16 25.03 СВ  16 км    ясно  -0.6  -5.3  70  -6  -6      995.6         

 

Местоположение метеостанции Mount Pleasant Municipal Airport: широта 43.6167 долгота -84.7333 высота над уровнем моря 230 м.

В архиве по умолчанию представлена погода в Маунт Плезант за последние 1-2 суток. Обновление информации о фактической погоде в базе происходит ежечасно! Архивные данные за месяц целиком и за предыдущие месяцы Вы можете получить, выбрав интересующий диапазон дат из раскрывающегося списка и нажав кнопку "Ввод!".

Внимание! Архив погоды МЕТАР в базе сайта хранится не более 60 дней. Нет смысла пытаться выбрать более раннюю дату.

Внимание! Время в таблицах - всемирное. Для получения местного времени необходимо прибавить поправку, которая в Маунт Плезант равна -5 ч.

Ветер - указаны скорость ветра в м/с и направление, откуда дует ветер: С - северный, СВ - северо-восточный, В - восточный, ЮВ - юго-восточный, Ю - южный, ЮЗ - юго-западный, З - западный, СЗ - северо-западный.
Видимость - горизонтальная дальность видимости в метрах или километрах. При видимости от 1 до 10 км при отсутствии осадков обычно наблюдается дымка, при ухудшении видимости до 1 км и менее - туман. В сухую погоду видимость может ухудшаться дымом, пылью или мглою.
Атмосферные явления - указаны явления, наблюдавшиеся в указанный момент времени.
Облачность - указаны через наклонную черту верхняя и нижняя облачность в баллах и высота нижней границы облаков в метрах. Внимание: облачность, как и прочие метеорологические величины в США измеряются автоматическими метеостанциями. Указанные значения в баллах носят условный характер и показывают процент времени, в течение которого, в среднем, лазерный луч высотомера отражался от облаков обратно.
T - Температура воздуха - температура, измеренная на высоте 2 м над землей.
Td - Температура точки росы - температура, при понижении до которой содержащийся в воздухе водяной пар достигнет насыщения.
f - Относительная влажность воздуха - влажноcть воздуха, измеренная на высоте 2 м над землей.
Te - Эффективная температура - температура, которую ощущает одетый по сезону человек в тени. Характеристика душности погоды. При расчете учитывается влияние влажности воздуха и скорости ветра на теплоощущения человека.
Tes - Эффективная температура на солнце - температура, которую ощущает человек, с поправкой на солнечный нагрев. Характеристика знойности погоды. Зависит от высоты солнца над горизонтом, облачности и скорости ветра. Ночью, в пасмурную погоду, а также при ветре 12 м/с и более поправка равна нулю.
P - Атмосферное давление - приведенное к уровню моря атмосферное давление.
Po - Атмосферное давление - измеренное на уровне метеостанции атмосферное давление.
Tmin - Минимальная температура - минимум температуры воздуха на высоте 2 м над землей.
Tmax - Максимальная температура - максимум температуры воздуха на высоте 2 м над землей.
R - Количество осадков - Количество выпавших осадков за 3 или 6 часов, мм.
SD - Снежный покров - Высота снежного покрова, см.